Weather History for KRNT - June, 2014

Change the Weather History Date:

Monday, June 2, 2014

  Actual Average Record
Temperature  
Mean Temperature 64 °F -  
Max Temperature 75 °F 67 °F 81 °F (2007)
Min Temperature 52 °F 50 °F 45 °F (1999)
Degree Days  
Heating Degree Days 2    
Growing Degree Days 14 (Base 50)    
Moisture  
Dew Point 53 °F    
Average Humidity 72    
Maximum Humidity 93    
Minimum Humidity 46    
Precipitation  
Precipitation 0.00 in - - ()
Sea Level Pressure  
Sea Level Pressure 29.94 in    
Wind  
Wind Speed 3 mph (SSE)    
Max Wind Speed 10 mph    
Max Gust Speed -    
Visibility 8 miles    
Events      
Averages and records for this station are not official NWS values.
T = Trace of Precipitation, MM = Missing Value Source: NWS Daily Summary

Daily Weather History Graph

Daily Weather History Graph

Search for Another Location

Airport or City:

Trip Planner

Search our weather history database for the weather conditions in past years. The results will help you decide how hot, cold, wet, or windy it might be!

Date:

Astronomy

Jun. 02, 2014 Rise Set
Actual Time 5:15 AM PDT 8:59 PM PDT
Civil Twilight 4:35 AM PDT 9:38 PM PDT
Nautical Twilight 3:42 AM PDT 10:32 PM PDT
Astronomical Twilight 2:27 AM PDT 11:48 PM PDT
Moon 9:59 AM PDT (6/2) No Moon Set
Length of Visible Light 17h 02m
Length of Day
15h 44m
Waxing Crescent, 22% of the Moon is Illuminated
Jun 2
Waxing Crescent
Jun 5
First Quarter
Jun 12
Full
Jun 19
Last Quarter
Jun 27
New

Hourly Weather History & Observations

Time (PDT) Temp. Dew Point Humidity Pressure Visibility Wind Dir Wind Speed Gust Speed Precip Events Conditions
12:53 AM 57.9 °F 52.0 °F 81% 30.00 in 9.0 mi SSE 3.5 mph - N/A   Clear
1:53 AM 57.0 °F 52.0 °F 83% 29.99 in 10.0 mi Calm Calm - N/A   Clear
2:53 AM 55.0 °F 51.1 °F 86% 29.99 in 9.0 mi Calm Calm - N/A   Clear
3:53 AM 54.0 °F 51.1 °F 90% 29.99 in 9.0 mi Calm Calm - N/A   Clear
4:53 AM 53.1 °F 50.0 °F 89% 29.99 in 9.0 mi SSE 3.5 mph - N/A   Clear
5:53 AM 52.0 °F 50.0 °F 93% 29.99 in 7.0 mi East 3.5 mph - N/A   Clear
6:53 AM 55.0 °F 51.1 °F 86% 29.99 in 7.0 mi Calm Calm - N/A   Clear
7:22 AM 55.9 °F 52.0 °F 87% 29.98 in 6.0 mi Calm Calm - N/A   Scattered Clouds
7:27 AM 55.9 °F 52.0 °F 87% 29.97 in 6.0 mi SE 3.5 mph - N/A   Mostly Cloudy
7:53 AM 55.9 °F 52.0 °F 87% 29.99 in 6.0 mi Calm Calm - N/A   Overcast
8:53 AM 57.0 °F 53.1 °F 87% 29.99 in 5.0 mi Variable 3.5 mph - N/A   Overcast
9:53 AM 57.2 °F 53.6 °F 88% 29.96 in 5.0 mi SSE 5.8 mph - N/A   Haze
10:07 AM 60.1 °F 53.1 °F 78% 29.96 in 5.0 mi Variable 4.6 mph - N/A   Haze
10:53 AM 62.6 °F 53.6 °F 72% 29.95 in 6.0 mi SSE 5.8 mph - N/A   Haze
11:53 AM 64.9 °F 54.0 °F 68% 29.95 in 8.0 mi SSE 8.1 mph - N/A   Clear
12:53 PM 68.0 °F 55.0 °F 63% 29.93 in 8.0 mi NNW 3.5 mph - N/A   Clear
1:53 PM 70.0 °F 52.0 °F 53% 29.91 in 10.0 mi NNW 6.9 mph - N/A   Clear
2:53 PM 72.0 °F 53.1 °F 51% 29.90 in 10.0 mi NNW 5.8 mph - N/A   Clear
3:53 PM 73.0 °F 51.1 °F 46% 29.88 in 10.0 mi NW 4.6 mph - N/A   Clear
4:53 PM 75.0 °F 53.1 °F 46% 29.87 in 10.0 mi North 5.8 mph - N/A   Clear
5:53 PM 75.9 °F 54.0 °F 46% 29.87 in 10.0 mi South 8.1 mph - N/A   Partly Cloudy
6:53 PM 73.9 °F 55.0 °F 52% 29.86 in 10.0 mi SSW 6.9 mph - N/A   Scattered Clouds
7:53 PM 72.0 °F 55.0 °F 55% 29.87 in 10.0 mi SW 5.8 mph - N/A   Clear
8:53 PM 68.0 °F 55.0 °F 63% 29.87 in 10.0 mi SSE 6.9 mph - N/A   Clear
9:53 PM 64.0 °F 53.1 °F 67% 29.90 in 10.0 mi South 5.8 mph - N/A   Clear
10:53 PM 61.0 °F 51.1 °F 70% 29.91 in 9.0 mi SSE 9.2 mph - N/A   Mostly Cloudy
11:53 PM 57.9 °F 50.0 °F 75% 29.92 in 9.0 mi South 10.4 mph - N/A   Clear